Lammy — PBRE — position and weather

sailwx.info

Track history (hours):
 
Tides and Currents Weather Stations Pressure Air Temp Water Temp Dewpoint Dewpoint Depression Visibility Wind Speed Wind Dir Waves Ship Positions

Lammy

Last reported at 2014-Oct-25 18:03 UTC. Time now 2014-Oct-26 04:30 UTC.
Position N 55°35' E 015°20'.

Length 95 m; draft 5.7 m.

Type: Cargo ship. MMSI: 245391000.

Date/timePositionNaut miles runAvg speedWind from/ knotsBaromVisibWave heightAir tempDewpointWater temp
2014-Oct-25 18:03N 55°35' E 015°20'611.8
2014-Oct-25 17:33N 55°32' E 015°11'1211.8
2014-Oct-25 16:33N 55°27' E 014°52'1211.8
2014-Oct-25 15:33N 55°20' E 014°35'1212.0
2014-Oct-25 14:33N 55°11' E 014°22'1211.9
2014-Oct-25 13:33N 55°02' E 014°07'7011.7
2014-Oct-25 07:32N 54°32' E 012°17'1111.4
2014-Oct-25 06:33N 54°24' E 012°02'4711.7
2014-Oct-25 02:32N 54°32' E 010°42'1212.1
2014-Oct-25 01:33N 54°30' E 010°23'1110.7
2014-Oct-25 00:33N 54°22' E 010°10'1 1.4
2014-Oct-24 23:33N 54°22' E 010°07'8 7.6
2014-Oct-24 22:33N 54°21' E 009°55'7 7.1
2014-Oct-24 21:31N 54°18' E 009°43'8 7.1
2014-Oct-24 20:26N 54°13' E 009°34'25 6.1
2014-Oct-24 16:23N 53°53' E 009°08'5 6.5
2014-Oct-24 15:33N 53°51' E 008°60'1010.0
2014-Oct-24 14:33N 53°53' E 008°43'1110.1
2014-Oct-24 13:26N 53°59' E 008°27'7812.8
2014-Oct-24 07:23N 53°43' E 006°18'1113.5
2014-Oct-24 06:33N 53°39' E 006°00'1313.4
2014-Oct-24 05:33N 53°35' E 005°38'1413.8
2014-Oct-24 04:33N 53°31' E 005°16'1413.7
2014-Oct-24 03:32N 53°26' E 004°55'1312.7
2014-Oct-24 02:32N 53°18' E 004°38'1312.9
2014-Oct-24 01:32N 53°07' E 004°28'1312.2
2014-Oct-24 00:31N 52°56' E 004°18'11811.8
2014-Oct-23 14:32N 51°26' E 002°14'1414.1
2014-Oct-23 13:33N 51°14' E 002°03'1514.7
2014-Oct-23 12:33N 51°05' E 001°45'15311.7
2014-Oct-22 23:29N 50°15' W 002°03'1111.1
2014-Oct-22 22:29N 50°14' W 002°20'1112.2
2014-Oct-22 21:33N 50°13' W 002°37'1312.8
2014-Oct-22 20:33N 50°13' W 002°57'1313.0
2014-Oct-22 19:33N 50°12' W 003°18'1313.2
2014-Oct-22 18:33N 50°10' W 003°38'3 0.1
2014-Oct-21 11:14N 50°11' W 003°43'5 7.7
2014-Oct-21 10:33N 50°12' W 003°35'9 8.8
2014-Oct-21 09:33N 50°17' W 003°23'9 8.5
2014-Oct-21 08:33N 50°20' W 003°10'7 7.0
2014-Oct-21 07:33N 50°23' W 003°01'5 4.8
2014-Oct-21 06:33N 50°25' W 002°54'59 7.0
2014-Oct-20 22:07N 50°29' W 001°21'611.3
2014-Oct-20 21:33N 50°30' W 001°11'1210.5
2014-Oct-20 20:25N 50°31' W 000°52'8 9.7
2014-Oct-20 19:33N 50°33' W 000°39'7410.0
2014-Oct-20 12:08N 50°56' E 001°12'710.5
2014-Oct-20 11:31N 51°00' E 001°20'9 9.8
2014-Oct-20 10:33N 51°07' E 001°31'10 9.7
2014-Oct-20 09:33N 51°13' E 001°43'1110.6
2014-Oct-20 08:33N 51°24' E 001°45'1211.9
2014-Oct-20 07:33N 51°36' E 001°45'1313.0
2014-Oct-20 06:33N 51°49' E 001°44'1313.1
2014-Oct-20 05:33N 52°02' E 001°46'1312.6
2014-Oct-20 04:33N 52°14' E 001°49'1212.4
2014-Oct-20 03:33N 52°26' E 001°51'1211.6
2014-Oct-20 02:33N 52°38' E 001°52'1111.5
2014-Oct-20 01:33N 52°47' E 001°41'1111.0
2014-Oct-20 00:34N 52°55' E 001°28'1110.7
2014-Oct-19 23:33N 53°00' E 001°12'3210.6
2014-Oct-19 20:31N 53°22' E 000°32'1110.9
2014-Oct-19 19:33N 53°30' E 000°20'1111.5
2014-Oct-19 18:33N 53°35' E 000°03'1212.4
2014-Oct-19 17:33N 53°42' W 000°14'3 3.3
2014-Oct-19 16:34N 53°45' W 000°17'0 0.0
2014-Oct-19 15:34N 53°45' W 000°17'0 0.0
2014-Oct-19 14:34N 53°45' W 000°17'0 0.0
2014-Oct-19 13:34N 53°45' W 000°17'0 0.0
2014-Oct-19 12:33N 53°45' W 000°17'0 0.0
2014-Oct-19 11:33N 53°45' W 000°17'0 0.0
2014-Oct-19 10:34N 53°45' W 000°17'0 0.0
2014-Oct-19 09:33N 53°45' W 000°17'0 0.0
2014-Oct-19 08:34N 53°45' W 000°17'0 0.0
2014-Oct-19 07:34N 53°45' W 000°17'0 0.0
2014-Oct-19 06:33N 53°45' W 000°17'0 0.0
2014-Oct-19 05:33N 53°45' W 000°17'0 0.0
2014-Oct-19 04:34N 53°45' W 000°17'0 0.0
2014-Oct-19 03:33N 53°45' W 000°17'0 0.0
2014-Oct-19 02:34N 53°45' W 000°17'0 0.3
2014-Oct-19 01:33N 53°45' W 000°18'1 1.3
2014-Oct-19 00:34N 53°45' W 000°16'0 0.0
2014-Oct-18 23:33N 53°45' W 000°16'0 0.0
2014-Oct-18 22:34N 53°45' W 000°16'0 0.0
2014-Oct-18 21:33N 53°45' W 000°16'0 0.0
2014-Oct-18 20:33N 53°45' W 000°16'0 0.0
2014-Oct-18 19:34N 53°45' W 000°16'0 0.0
2014-Oct-18 18:33N 53°45' W 000°16'0 0.0
2014-Oct-18 17:34N 53°45' W 000°16'0 0.0
2014-Oct-18 16:33N 53°45' W 000°16'0 0.0
2014-Oct-18 15:33N 53°45' W 000°16'0 0.0
2014-Oct-18 14:33N 53°45' W 000°16'0 0.0
2014-Oct-18 13:34N 53°45' W 000°16'0 0.0
2014-Oct-18 12:34N 53°45' W 000°16'0 0.0
2014-Oct-18 11:33N 53°45' W 000°16'0 0.0
2014-Oct-18 10:34N 53°45' W 000°16'0 0.0
2014-Oct-18 09:33N 53°45' W 000°16'0 0.4
2014-Oct-18 08:32N 53°44' W 000°16'4 4.3
2014-Oct-18 07:32N 53°41' W 000°13'8 8.6
2014-Oct-18 06:33N 53°36' W 000°02'9 9.0
2014-Oct-18 05:33N 53°33' E 000°13'10 9.6
2014-Oct-18 04:33N 53°40' E 000°24'41011.4
2014-Oct-16 16:33N 57°42' E 010°12'1414.1
2014-Oct-16 15:33N 57°47' E 010°37'5 4.7
2014-Oct-16 14:33N 57°43' E 010°38'1 1.2
2014-Oct-16 13:33N 57°43' E 010°36'6 5.7
2014-Oct-16 12:33N 57°40' E 010°45'1211.7
2014-Oct-16 11:32N 57°33' E 011°02'1212.1
2014-Oct-16 10:33N 57°25' E 011°20'1412.3
2014-Oct-16 09:27N 57°14' E 011°35'1412.5
2014-Oct-16 08:18N 57°01' E 011°45'1012.8
2014-Oct-16 07:33N 56°53' E 011°53'2512.3
2014-Oct-16 05:31N 56°30' E 012°12'1212.9
2014-Oct-16 04:34N 56°19' E 012°22'1413.8
2014-Oct-16 03:34N 56°07' E 012°34'1313.0
2014-Oct-16 02:33N 55°55' E 012°44'1212.4
2014-Oct-16 01:33N 55°43' E 012°41'1212.0
2014-Oct-16 00:33N 55°31' E 012°43'1212.1
2014-Oct-15 23:33N 55°19' E 012°40'5811.6
2014-Oct-15 18:32N 55°19' E 014°23'  
Track history (hours):
 
Tides and Currents Weather Stations Pressure Air Temp Water Temp Dewpoint Dewpoint Depression Visibility Wind Speed Wind Dir Waves Ship Positions

Lammy

Last reported at 2014-Oct-25 18:03 UTC. Time now 2014-Oct-26 04:30 UTC.
Position N 55°35' E 015°20'.

Length 95 m; draft 5.7 m.

Type: Cargo ship. MMSI: 245391000.

Date/timePositionNaut miles runAvg speedWind from/ knotsBaromVisibWave heightAir tempDewpointWater temp
2014-Oct-25 18:03N 55°35' E 015°20'611.8
2014-Oct-25 17:33N 55°32' E 015°11'1211.8
2014-Oct-25 16:33N 55°27' E 014°52'1211.8
2014-Oct-25 15:33N 55°20' E 014°35'1212.0
2014-Oct-25 14:33N 55°11' E 014°22'1211.9
2014-Oct-25 13:33N 55°02' E 014°07'7011.7
2014-Oct-25 07:32N 54°32' E 012°17'1111.4
2014-Oct-25 06:33N 54°24' E 012°02'4711.7
2014-Oct-25 02:32N 54°32' E 010°42'1212.1
2014-Oct-25 01:33N 54°30' E 010°23'1110.7
2014-Oct-25 00:33N 54°22' E 010°10'1 1.4
2014-Oct-24 23:33N 54°22' E 010°07'8 7.6
2014-Oct-24 22:33N 54°21' E 009°55'7 7.1
2014-Oct-24 21:31N 54°18' E 009°43'8 7.1
2014-Oct-24 20:26N 54°13' E 009°34'25 6.1
2014-Oct-24 16:23N 53°53' E 009°08'5 6.5
2014-Oct-24 15:33N 53°51' E 008°60'1010.0
2014-Oct-24 14:33N 53°53' E 008°43'1110.1
2014-Oct-24 13:26N 53°59' E 008°27'7812.8
2014-Oct-24 07:23N 53°43' E 006°18'1113.5
2014-Oct-24 06:33N 53°39' E 006°00'1313.4
2014-Oct-24 05:33N 53°35' E 005°38'1413.8
2014-Oct-24 04:33N 53°31' E 005°16'1413.7
2014-Oct-24 03:32N 53°26' E 004°55'1312.7
2014-Oct-24 02:32N 53°18' E 004°38'1312.9
2014-Oct-24 01:32N 53°07' E 004°28'1312.2
2014-Oct-24 00:31N 52°56' E 004°18'11811.8
2014-Oct-23 14:32N 51°26' E 002°14'1414.1
2014-Oct-23 13:33N 51°14' E 002°03'1514.7
2014-Oct-23 12:33N 51°05' E 001°45'15311.7
2014-Oct-22 23:29N 50°15' W 002°03'1111.1
2014-Oct-22 22:29N 50°14' W 002°20'1112.2
2014-Oct-22 21:33N 50°13' W 002°37'1312.8
2014-Oct-22 20:33N 50°13' W 002°57'1313.0
2014-Oct-22 19:33N 50°12' W 003°18'1313.2
2014-Oct-22 18:33N 50°10' W 003°38'3 0.1
2014-Oct-21 11:14N 50°11' W 003°43'5 7.7
2014-Oct-21 10:33N 50°12' W 003°35'9 8.8
2014-Oct-21 09:33N 50°17' W 003°23'9 8.5
2014-Oct-21 08:33N 50°20' W 003°10'7 7.0
2014-Oct-21 07:33N 50°23' W 003°01'5 4.8
2014-Oct-21 06:33N 50°25' W 002°54'59 7.0
2014-Oct-20 22:07N 50°29' W 001°21'611.3
2014-Oct-20 21:33N 50°30' W 001°11'1210.5
2014-Oct-20 20:25N 50°31' W 000°52'8 9.7
2014-Oct-20 19:33N 50°33' W 000°39'7410.0
2014-Oct-20 12:08N 50°56' E 001°12'710.5
2014-Oct-20 11:31N 51°00' E 001°20'9 9.8
2014-Oct-20 10:33N 51°07' E 001°31'10 9.7
2014-Oct-20 09:33N 51°13' E 001°43'1110.6
2014-Oct-20 08:33N 51°24' E 001°45'1211.9
2014-Oct-20 07:33N 51°36' E 001°45'1313.0
2014-Oct-20 06:33N 51°49' E 001°44'1313.1
2014-Oct-20 05:33N 52°02' E 001°46'1312.6
2014-Oct-20 04:33N 52°14' E 001°49'1212.4
2014-Oct-20 03:33N 52°26' E 001°51'1211.6
2014-Oct-20 02:33N 52°38' E 001°52'1111.5
2014-Oct-20 01:33N 52°47' E 001°41'1111.0
2014-Oct-20 00:34N 52°55' E 001°28'1110.7
2014-Oct-19 23:33N 53°00' E 001°12'3210.6
2014-Oct-19 20:31N 53°22' E 000°32'1110.9
2014-Oct-19 19:33N 53°30' E 000°20'1111.5
2014-Oct-19 18:33N 53°35' E 000°03'1212.4
2014-Oct-19 17:33N 53°42' W 000°14'3 3.3
2014-Oct-19 16:34N 53°45' W 000°17'0 0.0
2014-Oct-19 15:34N 53°45' W 000°17'0 0.0
2014-Oct-19 14:34N 53°45' W 000°17'0 0.0
2014-Oct-19 13:34N 53°45' W 000°17'0 0.0
2014-Oct-19 12:33N 53°45' W 000°17'0 0.0
2014-Oct-19 11:33N 53°45' W 000°17'0 0.0
2014-Oct-19 10:34N 53°45' W 000°17'0 0.0
2014-Oct-19 09:33N 53°45' W 000°17'0 0.0
2014-Oct-19 08:34N 53°45' W 000°17'0 0.0
2014-Oct-19 07:34N 53°45' W 000°17'0 0.0
2014-Oct-19 06:33N 53°45' W 000°17'0 0.0
2014-Oct-19 05:33N 53°45' W 000°17'0 0.0
2014-Oct-19 04:34N 53°45' W 000°17'0 0.0
2014-Oct-19 03:33N 53°45' W 000°17'0 0.0
2014-Oct-19 02:34N 53°45' W 000°17'0 0.3
2014-Oct-19 01:33N 53°45' W 000°18'1 1.3
2014-Oct-19 00:34N 53°45' W 000°16'0 0.0
2014-Oct-18 23:33N 53°45' W 000°16'0 0.0
2014-Oct-18 22:34N 53°45' W 000°16'0 0.0
2014-Oct-18 21:33N 53°45' W 000°16'0 0.0
2014-Oct-18 20:33N 53°45' W 000°16'0 0.0
2014-Oct-18 19:34N 53°45' W 000°16'0 0.0
2014-Oct-18 18:33N 53°45' W 000°16'0 0.0
2014-Oct-18 17:34N 53°45' W 000°16'0 0.0
2014-Oct-18 16:33N 53°45' W 000°16'0 0.0
2014-Oct-18 15:33N 53°45' W 000°16'0 0.0
2014-Oct-18 14:33N 53°45' W 000°16'0 0.0
2014-Oct-18 13:34N 53°45' W 000°16'0 0.0
2014-Oct-18 12:34N 53°45' W 000°16'0 0.0
2014-Oct-18 11:33N 53°45' W 000°16'0 0.0
2014-Oct-18 10:34N 53°45' W 000°16'0 0.0
2014-Oct-18 09:33N 53°45' W 000°16'0 0.4
2014-Oct-18 08:32N 53°44' W 000°16'4 4.3
2014-Oct-18 07:32N 53°41' W 000°13'8 8.6
2014-Oct-18 06:33N 53°36' W 000°02'9 9.0
2014-Oct-18 05:33N 53°33' E 000°13'10 9.6
2014-Oct-18 04:33N 53°40' E 000°24'41011.4
2014-Oct-16 16:33N 57°42' E 010°12'1414.1
2014-Oct-16 15:33N 57°47' E 010°37'5 4.7
2014-Oct-16 14:33N 57°43' E 010°38'1 1.2
2014-Oct-16 13:33N 57°43' E 010°36'6 5.7
2014-Oct-16 12:33N 57°40' E 010°45'1211.7
2014-Oct-16 11:32N 57°33' E 011°02'1212.1
2014-Oct-16 10:33N 57°25' E 011°20'1412.3
2014-Oct-16 09:27N 57°14' E 011°35'1412.5
2014-Oct-16 08:18N 57°01' E 011°45'1012.8
2014-Oct-16 07:33N 56°53' E 011°53'2512.3
2014-Oct-16 05:31N 56°30' E 012°12'1212.9
2014-Oct-16 04:34N 56°19' E 012°22'1413.8
2014-Oct-16 03:34N 56°07' E 012°34'1313.0
2014-Oct-16 02:33N 55°55' E 012°44'1212.4
2014-Oct-16 01:33N 55°43' E 012°41'1212.0
2014-Oct-16 00:33N 55°31' E 012°43'1212.1
2014-Oct-15 23:33N 55°19' E 012°40'5811.6
2014-Oct-15 18:32N 55°19' E 014°23'  

Dump ship's entire track history